Regional Weather Roundup
Issued by NWS

Home | Current Version | Previous Version | Text Only | Print | Product List | Glossary Off
Versions: 1 2 3 4 5 6 7 8 9 10 11 12 13 14 15 16 17 18 19 20 21 22 23 24 25 26 27 28 29 30 31 32 33 34 35 36 37 38 39 40 41 42 43 44 45 46 47 48

000
ASUS43 KDMX 292307
RWRIA

WEATHER ROUNDUP FOR IOWA
NATIONAL WEATHER SERVICE DES MOINES IA
600 PM CDT SAT AUG 29 2015

NOTE: "FAIR" INDICATES FEW OR NO CLOUDS BELOW 12,000 FEET WITH NO
SIGNIFICANT WEATHER AND/OR OBSTRUCTIONS TO VISIBILITY.

* - THESE STATIONS ARE NOT NWS STATIONS...THUS NOT UNDER NWS
QUALITY CONTROL.  THEY ALSO DO NOT REPORT WEATHER SUCH
AS PRECIPITATION OR FOG.

IAZ001>003-012>014-020>022-031>034-043>046-300000-
   NORTHWEST IOWA

CITY           SKY/WX    TMP DP  RH WIND       PRES   REMARKS
CARROLL *      CLOUDY    66  63  88 CALM      30.05F
CHEROKEE *     PTSUNNY   70  66  88 SE5       30.04S
DENISON *      CLOUDY    68  63  83 E5        30.03F
LE MARS *      SUNNY     72  64  78 S7        30.04S
ORANGE CITY *  SUNNY     72  64  78 S3        30.04S
SHELDON *      SUNNY     72  66  83 S6        30.03S
SIOUX CITY     MOSUNNY   70  63  78 SE9       30.03F
SPENCER        MOSUNNY   72  64  76 S7        30.04F
STORM LAKE *   MOSUNNY   68  64  88 CALM      30.06S
$$

IAZ055>058-069>071-079>083-090>094-300000-
   SOUTHWEST IOWA

CITY           SKY/WX    TMP DP  RH WIND       PRES   REMARKS
ATLANTIC *     CLOUDY    68  64  88 NE6       30.04F
AUDUBON *      CLOUDY    66  63  88 NE3       30.06F
CLARINDA *     CLOUDY    72  66  83 NW5       30.05S
COUNCIL BLFS * CLOUDY    72  64  78 E3        30.05S
CRESTON *      CLOUDY    70  64  83 N7        30.05S
HARLAN  *      CLOUDY    66 -40   1 E5        30.09R
LAMONI         CLOUDY    74  66  76 N8        30.02S
RED OAK *      CLOUDY    72  64  78 NE3       30.04S
SHENANDOAH *   CLOUDY    72  64  78 CALM      30.04F
$$

IAZ047>049-059>061-072>074-084-300000-
   CENTRAL IOWA

CITY           SKY/WX    TMP DP  RH WIND       PRES   REMARKS
AMES           CLOUDY    72  64  76 CALM      30.04R
ANKENY *       CLOUDY    72  66  83 CALM      30.02S
CHARITON *     CLOUDY    70  66  88 N3        30.03S
DES MOINES     CLOUDY    72  63  73 N6        30.02F
GRINNELL*      CLOUDY    68  64  88 NE6       30.04S
KNOXVILLE *    CLOUDY    72  66  83 N5        30.01S
MARSHALLTOWN   CLOUDY    71  63  75 CALM      30.03S
PELLA *        CLOUDY    72  70  94 NE3       30.03S
PERRY *        CLOUDY    70  64  83 NE3       30.05S
$$

IAZ004>006-015-016-023>025-035-036-300000-
   NORTH CENTRAL IOWA

CITY           SKY/WX    TMP DP  RH WIND       PRES   REMARKS
ALGONA *       CLOUDY    66  61  82 CALM      30.06S
CLARION *      MOSUNNY   70  63  78 CALM      30.04F
ESTHERVILLE    MOSUNNY   69  64  84 S8        30.04S
FORT DODGE *   CLOUDY    68  61  77 W3        30.06S
MASON CITY     MOSUNNY   72  66  81 CALM      30.06S
FOREST CITY *  MOSUNNY   70  63  78 CALM      30.04S
IOWA FALLS *   PTSUNNY   72  63  73 CALM      30.06R
$$

IAZ007>011-017>019-026>030-037>042-050>054-066-300000-
   NORTHEAST IOWA

CITY           SKY/WX    TMP DP  RH WIND       PRES   REMARKS
CEDAR RAPIDS   CLOUDY    73  68  84 N5        30.01S
CHARLES CITY * MOSUNNY   72  66  83 E6        30.05R
CLINTON *      CLOUDY    72  66  83 NE3       30.03S
DECORAH *      CLOUDY    72  63  73 VRB5      30.04S
DUBUQUE        CLOUDY    71  65  81 N7        30.03S
MONTICELLO *   CLOUDY    72  66  83 N5        30.02S
OELWEIN *        N/A     70  63  78 E6        30.04F
WATERLOO       CLOUDY    71  63  75 E7        30.02F
$$

IAZ064-065-067-068-078-300000-
   EAST CENTRAL IOWA

CITY           SKY/WX    TMP DP  RH WIND       PRES   REMARKS
DAVENPORT      CLOUDY    72  67  84 E5        30.01S
IOWA CITY      CLOUDY    76  68  76 N5        30.01S
MT. PLEASANT * CLOUDY    77  66  69 N7        30.00R
MUSCATINE *    CLOUDY    75  68  78 NE5       30.01R
QUAD CITIES    CLOUDY    73  67  81 NE6       30.00R
$$

IAZ062-063-075>077-085>089-095>099-300000-
   SOUTHEAST IOWA

CITY           SKY/WX    TMP DP  RH WIND       PRES   REMARKS
BURLINGTON     PTSUNNY   78  69  73 CALM      29.99R HX  80
FAIRFIELD *    PTSUNNY   75  68  78 N8        30.01S
FORT MADISON * PTSUNNY   75  70  83 CALM      30.00S
KEOKUK *       CLOUDY    77  70  78 NW5       29.99R
OSKALOOSA *    CLOUDY    73  66  78 NW3       30.02S
CENTERVILLE *  SUNNY     72  68  88 NW10      30.03F
OTTUMWA          N/A     74  68  81 NW6       30.00S
WASHINGTON *     N/A    N/A N/A N/A MISG        N/A
$$

ABBREVIATIONS USED IN REMARKS
   TC - TEMPERATURES IN CELSIUS
  WCI - WIND CHILL INDEX
   HX - HEAT INDEX
  VSB - VISIBILITY
$$




USA.gov is the U.S. government's official web portal to all federal, state and local government web resources and services.